Weather in Chigiri

Russia / Amur Oblast     50°20′20″N   127°30′27″E
temp.,
°C
wind,
m/s
gust,
m/s
humid.,
%
clouds,
%
prec.,
mm/h
press.,
hPa
HPBL,
m
16 october, sat
sat1600:00−4nnw81392100 0.8 1018862
03:00−4nnw81382100 1.2 1018998
06:00−4nw91473100 0.0 10181007
09:00−3nw91351100 0.0 10181214
12:00−1nnw101338100 0.0 10181643
15:000nnw9123493 0.0 10181840
18:00−2nw6123745 0.0 1020599
21:00−3nw713391 0.0 1020588
17 october, sun
sun1700:00−3nw611425 0.0 1020418
03:00−4wnw59450 0.0 1019287
06:00−5w36495 0.0 1019125
09:00−2wnw463455 0.0 1019508
12:00+1wnw342268 0.0 10181714
15:00+2wnw34225 0.0 10162037
18:00−2nne113114 0.0 101810
21:00−4ne11425 0.0 101910
18 october, mon
mon1800:00−5nnw11445 0.0 101910
03:00−5nw11455 0.0 102010
06:00−6nw12463 0.0 102110
09:00−2wnw23350 0.0 1023261
12:00+2nw45273 0.0 10221752
15:00+2nnw5728100 0.0 10222131
18:00−2nnw224473 0.0 102312
21:00−3wnw22515 0.0 102416
19 october, tue
tue1900:00−4wnw34545 0.0 102552
03:00−4w35550 0.0 102579
06:00−4w33555 0.0 102427
09:000wsw35405 0.0 1023281
12:00+5w343138 0.0 10211406
15:00+6w453084 0.0 10191630
18:00+3w2245100 0.0 102018
21:00+1nw225265 0.0 102016
20 october, wed
wed2000:00−1nw22595 0.0 102113
03:00−2nw22620 0.0 102212
06:00−2wnw22665 0.0 102318
09:00+2nw47520 0.0 1023340
12:00+6nnw56400 0.0 10221044
15:00+7nnw57383 0.0 10201378
18:00+3nw33552 0.0 102123
21:00+1wnw22633 0.0 102023